• In Uzbekistan
  • List of Countries
  • For 7 days
  • Water Temperature
  • Satellite Maps
  • Weather Map
  • Weather Widgets
  • user-avatar
    Login

    Hourly Weather Malanje

    Today, 25 February, Saturday

    Time Temperature Precipitation Wind Pressure Humidity
    00:00 +20°C° 0.1 mm 3 mps 665 mmHg 82%
    01:00 +19°C° 0.1 mm 3 mps 665 mmHg 89%
    02:00 +18°C° 0 mm 3 mps 665 mmHg 91%
    03:00 +18°C° 0 mm 3 mps 664 mmHg 93%
    04:00 +18°C° 0 mm 3 mps 664 mmHg 96%
    05:00 +18°C° 0 mm 4 mps 665 mmHg 94%
    06:00 +18°C° 0 mm 4 mps 665 mmHg 93%
    07:00 +18°C° 0 mm 4 mps 665 mmHg 91%
    08:00 +20°C° 0 mm 4 mps 666 mmHg 80%
    09:00 +23°C° 0 mm 4 mps 666 mmHg 69%
    10:00 +26°C° 0 mm 4 mps 667 mmHg 58%
    11:00 +27°C° 0 mm 3 mps 666 mmHg 52%
    12:00 +29°C° 0 mm 3 mps 666 mmHg 47%
    13:00 +31°C° 0 mm 3 mps 665 mmHg 41%
    14:00 +31°C° 0.1 mm 3 mps 665 mmHg 42%
    15:00 +31°C° 0.1 mm 2 mps 664 mmHg 44%
    16:00 +31°C° 0.1 mm 2 mps 664 mmHg 46%
    17:00 +28°C° 0.2 mm 2 mps 663 mmHg 53%
    18:00 +26°C° 0.2 mm 2 mps 663 mmHg 60%
    19:00 +23°C° 0.2 mm 2 mps 663 mmHg 67%
    20:00 +21°C° 0.3 mm 2 mps 663 mmHg 71%
    21:00 +21°C° 0.3 mm 2 mps 664 mmHg 75%
    22:00 +20°C° 0.3 mm 2 mps 664 mmHg 79%
    23:00 +19°C° 0 mm 2 mps 664 mmHg 81%

    Tomorrow, 26 February, Sunday

    Time Temperature Precipitation Wind Pressure Humidity
    00:00 +19°C° 0 mm 2 mps 664 mmHg 83%
    01:00 +19°C° 0 mm 2 mps 664 mmHg 85%
    02:00 +18°C° 0.1 mm 2 mps 664 mmHg 87%
    03:00 +18°C° 0.1 mm 2 mps 663 mmHg 89%
    04:00 +18°C° 0.1 mm 2 mps 663 mmHg 90%
    05:00 +18°C° 0.2 mm 2 mps 664 mmHg 91%
    06:00 +18°C° 0.2 mm 2 mps 664 mmHg 91%
    07:00 +18°C° 0.2 mm 2 mps 664 mmHg 91%
    08:00 +19°C° 0.2 mm 2 mps 665 mmHg 87%
    09:00 +21°C° 0.2 mm 2 mps 665 mmHg 84%
    10:00 +23°C° 0.2 mm 2 mps 666 mmHg 80%
    11:00 +24°C° 0.3 mm 2 mps 665 mmHg 76%
    12:00 +25°C° 0.3 mm 2 mps 665 mmHg 72%
    13:00 +26°C° 0.3 mm 2 mps 664 mmHg 68%
    14:00 +26°C° 0.1 mm 2 mps 663 mmHg 67%
    15:00 +27°C° 0.1 mm 2 mps 663 mmHg 66%
    16:00 +27°C° 0.1 mm 2 mps 662 mmHg 65%
    17:00 +25°C° 0.1 mm 2 mps 662 mmHg 71%
    18:00 +24°C° 0.1 mm 2 mps 662 mmHg 77%
    19:00 +21°C° 0.1 mm 2 mps 662 mmHg 83%
    20:00 +21°C° 0.7 mm 2 mps 663 mmHg 84%
    21:00 +20°C° 0.7 mm 2 mps 663 mmHg 85%
    22:00 +20°C° 0.7 mm 2 mps 664 mmHg 86%
    23:00 +20°C° 0 mm 2 mps 663 mmHg 87%

    Day after tomorrow, 27 February, Monday

    Time Temperature Precipitation Wind Pressure Humidity
    00:00 +19°C° 0 mm 2 mps 663 mmHg 89%
    01:00 +19°C° 0 mm 2 mps 662 mmHg 91%
    02:00 +18°C° 0 mm 2 mps 662 mmHg 92%
    03:00 +18°C° 0 mm 2 mps 662 mmHg 94%
    04:00 +18°C° 0 mm 2 mps 662 mmHg 95%
    05:00 +18°C° 0 mm 2 mps 662 mmHg 94%
    06:00 +18°C° 0 mm 2 mps 663 mmHg 94%
    07:00 +19°C° 0 mm 2 mps 663 mmHg 93%
    08:00 +20°C° 0 mm 2 mps 664 mmHg 84%
    09:00 +23°C° 0 mm 2 mps 664 mmHg 76%
    10:00 +25°C° 0 mm 2 mps 665 mmHg 68%
    11:00 +27°C° 0.2 mm 2 mps 665 mmHg 63%
    12:00 +28°C° 0.2 mm 2 mps 664 mmHg 58%
    13:00 +30°C° 0.2 mm 2 mps 664 mmHg 54%
    14:00 +29°C° 1.9 mm 2 mps 663 mmHg 60%
    15:00 +28°C° 1.9 mm 2 mps 663 mmHg 67%
    16:00 +27°C° 1.9 mm 2 mps 662 mmHg 74%
    17:00 +25°C° 0.8 mm 2 mps 662 mmHg 79%
    18:00 +23°C° 0.8 mm 1 mps 663 mmHg 84%
    19:00 +22°C° 0.8 mm 1 mps 663 mmHg 88%
    20:00 +21°C° 0.1 mm 1 mps 663 mmHg 88%
    21:00 +21°C° 0.1 mm 1 mps 663 mmHg 88%
    22:00 +21°C° 0.1 mm 1 mps 664 mmHg 88%
    23:00 +20°C° 0 mm 1 mps 663 mmHg 89%

    28 February, Tuesday

    Time Temperature Precipitation Wind Pressure Humidity
    00:00 +19°C° 0 mm 2 mps 663 mmHg 90%
    01:00 +18°C° 0 mm 2 mps 662 mmHg 91%
    02:00 +18°C° 0 mm 2 mps 662 mmHg 93%
    03:00 +18°C° 0 mm 2 mps 662 mmHg 95%
    04:00 +18°C° 0 mm 2 mps 662 mmHg 97%
    05:00 +18°C° 0 mm 2 mps 663 mmHg 96%
    06:00 +18°C° 0 mm 2 mps 663 mmHg 96%
    07:00 +19°C° 0 mm 2 mps 664 mmHg 96%
    08:00 +21°C° 0 mm 2 mps 664 mmHg 86%
    09:00 +24°C° 0 mm 2 mps 665 mmHg 76%
    10:00 +26°C° 0 mm 2 mps 666 mmHg 66%
    11:00 +27°C° 0.2 mm 3 mps 665 mmHg 61%
    12:00 +29°C° 0.2 mm 3 mps 665 mmHg 56%
    13:00 +30°C° 0.2 mm 3 mps 664 mmHg 50%
    14:00 +29°C° 1.3 mm 3 mps 664 mmHg 57%
    15:00 +28°C° 1.3 mm 3 mps 664 mmHg 63%
    16:00 +27°C° 1.3 mm 3 mps 663 mmHg 69%
    17:00 +26°C° 0.6 mm 2 mps 663 mmHg 75%
    18:00 +24°C° 0.6 mm 2 mps 663 mmHg 80%
    19:00 +22°C° 0.6 mm 1 mps 664 mmHg 86%
    20:00 +22°C° 0.3 mm 1 mps 664 mmHg 87%
    21:00 +21°C° 0.3 mm 1 mps 664 mmHg 89%
    22:00 +21°C° 0.3 mm 1 mps 664 mmHg 90%
    23:00 +20°C° 0.2 mm 1 mps 664 mmHg 92%

    1 March, Wednesday

    Time Temperature Precipitation Wind Pressure Humidity
    00:00 +20°C° 0.2 mm 1 mps 664 mmHg 93%
    01:00 +19°C° 0.2 mm 1 mps 663 mmHg 94%
    02:00 +19°C° 0 mm 1 mps 663 mmHg 95%
    03:00 +19°C° 0 mm 1 mps 663 mmHg 95%
    04:00 +18°C° 0 mm 1 mps 663 mmHg 96%
    05:00 +19°C° 0 mm 1 mps 663 mmHg 95%
    06:00 +19°C° 0 mm 1 mps 664 mmHg 94%
    07:00 +19°C° 0 mm 1 mps 664 mmHg 94%
    08:00 +21°C° 0 mm 2 mps 665 mmHg 82%
    09:00 +24°C° 0 mm 2 mps 665 mmHg 70%
    10:00 +27°C° 0 mm 3 mps 666 mmHg 58%
    11:00 +28°C° 0 mm 3 mps 666 mmHg 51%
    12:00 +30°C° 0 mm 3 mps 665 mmHg 44%
    13:00 +32°C° 0 mm 4 mps 665 mmHg 37%
    14:00 +32°C° 0 mm 4 mps 664 mmHg 38%
    15:00 +32°C° 0 mm 4 mps 664 mmHg 38%
    16:00 +32°C° 0 mm 4 mps 663 mmHg 39%
    17:00 +29°C° 0 mm 4 mps 664 mmHg 44%
    18:00 +26°C° 0 mm 3 mps 664 mmHg 49%
    19:00 +24°C° 0 mm 3 mps 664 mmHg 54%
    20:00 +22°C° 0 mm 3 mps 664 mmHg 56%
    21:00 +21°C° 0 mm 3 mps 664 mmHg 59%
    22:00 +20°C° 0 mm 3 mps 664 mmHg 61%
    23:00 +19°C° 0 mm 3 mps 664 mmHg 68%

    2 March, Thursday

    Time Temperature Precipitation Wind Pressure Humidity
    00:00 +19°C° 0 mm 3 mps 664 mmHg 75%
    01:00 +18°C° 0 mm 2 mps 664 mmHg 82%
    02:00 +17°C° 0 mm 2 mps 663 mmHg 86%
    03:00 +17°C° 0 mm 2 mps 663 mmHg 90%
    04:00 +16°C° 0 mm 2 mps 663 mmHg 93%
    05:00 +17°C° 0 mm 2 mps 663 mmHg 92%
    06:00 +17°C° 0 mm 2 mps 664 mmHg 90%
    07:00 +18°C° 0 mm 2 mps 665 mmHg 89%
    08:00 +21°C° 0 mm 2 mps 665 mmHg 75%
    09:00 +24°C° 0 mm 3 mps 666 mmHg 61%
    10:00 +27°C° 0 mm 4 mps 666 mmHg 48%
    11:00 +29°C° 0 mm 4 mps 666 mmHg 43%
    12:00 +30°C° 0 mm 4 mps 665 mmHg 39%
    13:00 +32°C° 0 mm 4 mps 665 mmHg 35%
    14:00 +32°C° 0 mm 4 mps 664 mmHg 36%
    15:00 +32°C° 0 mm 4 mps 664 mmHg 37%
    16:00 +32°C° 0 mm 4 mps 663 mmHg 37%
    17:00 +28°C° 0 mm 4 mps 663 mmHg 44%
    18:00 +26°C° 0 mm 3 mps 663 mmHg 50%
    19:00 +23°C° 0 mm 2 mps 663 mmHg 56%
    20:00 +21°C° 0 mm 2 mps 663 mmHg 59%
    21:00 +20°C° 0 mm 2 mps 664 mmHg 61%
    22:00 +20°C° 0 mm 2 mps 664 mmHg 63%
    23:00 +19°C° 0 mm 2 mps 664 mmHg 67%
    Show more